(°C)
-3°
-3°
-3°
-3°
-3°
-3°
-4°
(°C)
-10°
-10°
-11°
-11°
-11°
-11°
-12°
GGB
GGB
GGB
G
G
G
G
(km/saat)
24-46
24-47
25-48
25-47
25-47
25-47
26-49
(mm)
0
0
0
0
0
0
0
(%)
0
0
0
0
0
0
0

Güneşin açısı

/ 13.3°
sun-icon
UV 0
08:41
16:41
Azalan ay (209°)
19:13
10:23

55.6°K 37.27°D (UUWW) için METAR

Zaman Koşullar Sıcaklık/
Çiy noktası
Rüzgar Görünürlük Hava Bulutlar Basınç Değiştir Ham
LIFR -3°C / -4°C 200º 10kt 8000m - Overcast 400ft 1003 Temporary: Light freezing Drizzle . . Runway 24: Wet snow, 1-10% contamination with 5mm, friction coefficient 0.50. UUWW 200830Z 20005MPS 8000 OVC004 M03/M04 Q1003 R24/510550 TEMPO -FZDZ
LIFR -3°C / -4°C 190º 12kt 8000m - Overcast 400ft 1003 Temporary: Light freezing Drizzle . . Runway 19: Dry snow, 1-10% contamination with 5mm, friction coefficient 0.45. UUWW 200800Z 19006MPS 8000 OVC004 M03/M04 Q1003 R19/410545 TEMPO -FZDZ
IFR -3°C / -5°C 200º 12kt 9000m - Overcast 500ft 1003 Temporary: Light freezing Drizzle . . Runway 19: Dry snow, 1-10% contamination with 5mm, friction coefficient 0.45. UUWW 200730Z 20006MPS 9000 OVC005 M03/M05 Q1003 R19/410545 TEMPO -FZDZ
LIFR -4°C / -5°C 200º 12kt 8000m - Overcast 400ft 1003 Temporary: Light freezing Drizzle . . Runway 19: Dry snow, 1-10% contamination with 5mm, friction coefficient 0.45. UUWW 200700Z 20006MPS 8000 OVC004 M04/M05 Q1003 R19/410545 TEMPO -FZDZ
LIFR -4°C / -5°C 200º 14kt 8000m - Overcast 400ft 1003 Temporary: Light freezing Drizzle . . Runway 19: Dry snow, 1-10% contamination with 5mm, friction coefficient 0.45. UUWW 200630Z 20007MPS 8000 OVC004 M04/M05 Q1003 R19/410545 TEMPO -FZDZ
LIFR -4°C / -5°C 200º 12kt 7000m Light freezing Drizzle 0.40mm precipitation Vertical Visibility of 0ft. 1003 No Significant change. Runway 19: Dry snow, 1-10% contamination with 5mm, friction coefficient 0.45. UUWW 200600Z 20006MPS 7000 -FZDZ OVC004 M04/M05 Q1003 R19/410545 NOSIG
LIFR -4°C / -5°C 200º 14kt 6000m Light freezing Drizzle 0.40mm precipitation Vertical Visibility of 0ft. 1004 No Significant change. Runway 19: Dry snow, 1-10% contamination with 5mm, friction coefficient 0.45. UUWW 200530Z 20007MPS 6000 -FZDZ OVC004 M04/M05 Q1004 R19/410545 NOSIG
LIFR -4°C / -5°C 200º 12kt 5000m Light freezing Drizzle Mist 0.40mm precipitation Vertical Visibility of 0ft. 1004 No Significant change. Runway 24: Wet snow, 1-10% contamination with 5mm, friction coefficient 0.45. UUWW 200500Z 20006MPS 5000 -FZDZ BR OVC004 M04/M05 Q1004 R24/510545 NOSIG
LIFR -4°C / -5°C 200º 10kt 5000m Light freezing Drizzle Mist 0.40mm precipitation Vertical Visibility of 0ft. 1004 No Significant change. Runway 24: Wet snow, 1-10% contamination with 5mm, friction coefficient 0.45. UUWW 200430Z 20005MPS 5000 -FZDZ BR OVC003 M04/M05 Q1004 R24/510545 NOSIG
LIFR -4°C / -5°C 210º 12kt 5000m Light freezing Drizzle Mist 0.40mm precipitation Vertical Visibility of 0ft. 1004 No Significant change. Runway 24: Wet snow, 1-10% contamination with 5mm, friction coefficient 0.45. UUWW 200400Z 21006MPS 5000 -FZDZ BR OVC003 M04/M05 Q1004 R24/510545 NOSIG
LIFR -4°C / -5°C 200º 10kt 6000m Light freezing Drizzle 0.40mm precipitation Vertical Visibility of 0ft. 1004 No Significant change. Runway 24: Dry snow, 1-10% contamination with 5mm, friction coefficient 0.42. UUWW 200330Z 20005MPS 6000 -FZDZ OVC004 M04/M05 Q1004 R24/410542 NOSIG
LIFR -4°C / -5°C 200º 10kt 9000m Light freezing Drizzle 0.40mm precipitation Vertical Visibility of 0ft. 1005 Temporary: Light freezing Drizzle . Overcast 300ft. . Runway 24: Dry snow, 1-10% contamination with 5mm, friction coefficient 0.45. UUWW 200300Z 20005MPS 9000 -FZDZ OVC004 M04/M05 Q1005 R24/410545 TEMPO -FZDZ OVC003
IFR -4°C / -5°C 210º 10kt >10km - Overcast 500ft 1005 No Significant change. Runway 24: Dry snow, 1-10% contamination with 5mm, friction coefficient 0.45. UUWW 200230Z 21005MPS 9999 OVC005 M04/M05 Q1005 R24/410545 NOSIG
LIFR -4°C / -5°C 210º 12kt >10km - Overcast 400ft 1005 No Significant change. Runway 24: Dry snow, 1-10% contamination with 5mm, friction coefficient 0.45. UUWW 200200Z 21006MPS 9999 OVC004 M04/M05 Q1005 R24/410545 NOSIG
IFR -4°C / -6°C 210º 12kt >10km - Overcast 500ft 1005 No Significant change. Runway 24: Dry snow, 1-10% contamination with 5mm, friction coefficient 0.45. UUWW 200130Z 21006MPS 9999 OVC005 M04/M06 Q1005 R24/410545 NOSIG
IFR -4°C / -6°C 210º 12kt >10km - Overcast 500ft 1006 No Significant change. Runway 24: Dry snow, 1-10% contamination with 5mm, friction coefficient 0.45. UUWW 200100Z 21006MPS 9999 OVC005 M04/M06 Q1006 R24/410545 NOSIG
IFR -5°C / -6°C 210º 12kt. Wind Shear present on Runway 24. >10km - Overcast 500ft 1006 No Significant change. Runway 24: Dry snow, 1-10% contamination with 5mm, friction coefficient 0.45. UUWW 200030Z 21006MPS 9999 OVC005 M05/M06 Q1006 RMK WS R24 R24/410545 NOSIG
IFR -5°C / -6°C 210º 12kt >10km - Overcast 500ft 1006 No Significant change. Runway 24: Dry snow, 1-10% contamination with 5mm, friction coefficient 0.45. UUWW 200000Z 21006MPS 9999 OVC005 M05/M06 Q1006 R24/410545 NOSIG
IFR -5°C / -6°C 200º 10kt >10km - Overcast 600ft 1007 No Significant change. Runway 24: Dry snow, 1-10% contamination with 5mm, friction coefficient 0.45. UUWW 192330Z 20005MPS 9999 OVC006 M05/M06 Q1007 R24/410545 NOSIG
IFR -5°C / -6°C 200º 12kt >10km - Overcast 600ft 1007 No Significant change. Runway 24: Dry snow, 1-10% contamination with 5mm, friction coefficient 0.45. UUWW 192300Z 20006MPS 9999 OVC006 M05/M06 Q1007 R24/410545 NOSIG
IFR -5°C / -6°C 200º 10kt >10km - Overcast 600ft 1007 No Significant change. Runway 24: Dry snow, 1-10% contamination with 5mm, friction coefficient 0.45. UUWW 192230Z 20005MPS 9999 OVC006 M05/M06 Q1007 R24/410545 NOSIG
IFR -5°C / -7°C 190º 10kt >10km - Overcast 600ft 1008 No Significant change. Runway 24: Dry snow, 1-10% contamination with 5mm, friction coefficient 0.45. UUWW 192200Z 19005MPS 9999 OVC006 M05/M07 Q1008 R24/410545 NOSIG
IFR -5°C / -7°C 200º 8kt >10km - Overcast 600ft 1008 No Significant change. Runway 24: Dry snow, 1-10% contamination with 5mm, friction coefficient 0.45. UUWW 192130Z 20004MPS 9999 OVC006 M05/M07 Q1008 R24/410545 NOSIG
IFR -6°C / -7°C 210º 10kt >10km - Overcast 600ft 1008 No Significant change. Runway 19: Dry snow, 1-10% contamination with 5mm, friction coefficient 0.45. UUWW 192100Z 21005MPS 9999 OVC006 M06/M07 Q1008 R19/410545 NOSIG

LIFR

-3°C / -4°C

[Daha fazla]
Rüzgar 200º 10kt
Görünürlük 8000m
Hava -
Bulutlar Overcast 400ft
Basınç 1003
Değiştir Temporary: Light freezing Drizzle . . Runway 24: Wet snow, 1-10% contamination with 5mm, friction coefficient 0.50.
Ham UUWW 200830Z 20005MPS 8000 OVC004 M03/M04 Q1003 R24/510550 TEMPO -FZDZ

LIFR

-3°C / -4°C

[Daha fazla]
Rüzgar 190º 12kt
Görünürlük 8000m
Hava -
Bulutlar Overcast 400ft
Basınç 1003
Değiştir Temporary: Light freezing Drizzle . . Runway 19: Dry snow, 1-10% contamination with 5mm, friction coefficient 0.45.
Ham UUWW 200800Z 19006MPS 8000 OVC004 M03/M04 Q1003 R19/410545 TEMPO -FZDZ

IFR

-3°C / -5°C

[Daha fazla]
Rüzgar 200º 12kt
Görünürlük 9000m
Hava -
Bulutlar Overcast 500ft
Basınç 1003
Değiştir Temporary: Light freezing Drizzle . . Runway 19: Dry snow, 1-10% contamination with 5mm, friction coefficient 0.45.
Ham UUWW 200730Z 20006MPS 9000 OVC005 M03/M05 Q1003 R19/410545 TEMPO -FZDZ

LIFR

-4°C / -5°C

[Daha fazla]
Rüzgar 200º 12kt
Görünürlük 8000m
Hava -
Bulutlar Overcast 400ft
Basınç 1003
Değiştir Temporary: Light freezing Drizzle . . Runway 19: Dry snow, 1-10% contamination with 5mm, friction coefficient 0.45.
Ham UUWW 200700Z 20006MPS 8000 OVC004 M04/M05 Q1003 R19/410545 TEMPO -FZDZ

LIFR

-4°C / -5°C

[Daha fazla]
Rüzgar 200º 14kt
Görünürlük 8000m
Hava -
Bulutlar Overcast 400ft
Basınç 1003
Değiştir Temporary: Light freezing Drizzle . . Runway 19: Dry snow, 1-10% contamination with 5mm, friction coefficient 0.45.
Ham UUWW 200630Z 20007MPS 8000 OVC004 M04/M05 Q1003 R19/410545 TEMPO -FZDZ

LIFR

-4°C / -5°C

[Daha fazla]
Rüzgar 200º 12kt
Görünürlük 7000m
Hava Light freezing Drizzle 0.40mm precipitation
Bulutlar Vertical Visibility of 0ft.
Basınç 1003
Değiştir No Significant change. Runway 19: Dry snow, 1-10% contamination with 5mm, friction coefficient 0.45.
Ham UUWW 200600Z 20006MPS 7000 -FZDZ OVC004 M04/M05 Q1003 R19/410545 NOSIG

LIFR

-4°C / -5°C

[Daha fazla]
Rüzgar 200º 14kt
Görünürlük 6000m
Hava Light freezing Drizzle 0.40mm precipitation
Bulutlar Vertical Visibility of 0ft.
Basınç 1004
Değiştir No Significant change. Runway 19: Dry snow, 1-10% contamination with 5mm, friction coefficient 0.45.
Ham UUWW 200530Z 20007MPS 6000 -FZDZ OVC004 M04/M05 Q1004 R19/410545 NOSIG

LIFR

-4°C / -5°C

[Daha fazla]
Rüzgar 200º 12kt
Görünürlük 5000m
Hava Light freezing Drizzle Mist 0.40mm precipitation
Bulutlar Vertical Visibility of 0ft.
Basınç 1004
Değiştir No Significant change. Runway 24: Wet snow, 1-10% contamination with 5mm, friction coefficient 0.45.
Ham UUWW 200500Z 20006MPS 5000 -FZDZ BR OVC004 M04/M05 Q1004 R24/510545 NOSIG

LIFR

-4°C / -5°C

[Daha fazla]
Rüzgar 200º 10kt
Görünürlük 5000m
Hava Light freezing Drizzle Mist 0.40mm precipitation
Bulutlar Vertical Visibility of 0ft.
Basınç 1004
Değiştir No Significant change. Runway 24: Wet snow, 1-10% contamination with 5mm, friction coefficient 0.45.
Ham UUWW 200430Z 20005MPS 5000 -FZDZ BR OVC003 M04/M05 Q1004 R24/510545 NOSIG

LIFR

-4°C / -5°C

[Daha fazla]
Rüzgar 210º 12kt
Görünürlük 5000m
Hava Light freezing Drizzle Mist 0.40mm precipitation
Bulutlar Vertical Visibility of 0ft.
Basınç 1004
Değiştir No Significant change. Runway 24: Wet snow, 1-10% contamination with 5mm, friction coefficient 0.45.
Ham UUWW 200400Z 21006MPS 5000 -FZDZ BR OVC003 M04/M05 Q1004 R24/510545 NOSIG

LIFR

-4°C / -5°C

[Daha fazla]
Rüzgar 200º 10kt
Görünürlük 6000m
Hava Light freezing Drizzle 0.40mm precipitation
Bulutlar Vertical Visibility of 0ft.
Basınç 1004
Değiştir No Significant change. Runway 24: Dry snow, 1-10% contamination with 5mm, friction coefficient 0.42.
Ham UUWW 200330Z 20005MPS 6000 -FZDZ OVC004 M04/M05 Q1004 R24/410542 NOSIG

LIFR

-4°C / -5°C

[Daha fazla]
Rüzgar 200º 10kt
Görünürlük 9000m
Hava Light freezing Drizzle 0.40mm precipitation
Bulutlar Vertical Visibility of 0ft.
Basınç 1005
Değiştir Temporary: Light freezing Drizzle . Overcast 300ft. . Runway 24: Dry snow, 1-10% contamination with 5mm, friction coefficient 0.45.
Ham UUWW 200300Z 20005MPS 9000 -FZDZ OVC004 M04/M05 Q1005 R24/410545 TEMPO -FZDZ OVC003

IFR

-4°C / -5°C

[Daha fazla]
Rüzgar 210º 10kt
Görünürlük >10km
Hava -
Bulutlar Overcast 500ft
Basınç 1005
Değiştir No Significant change. Runway 24: Dry snow, 1-10% contamination with 5mm, friction coefficient 0.45.
Ham UUWW 200230Z 21005MPS 9999 OVC005 M04/M05 Q1005 R24/410545 NOSIG

LIFR

-4°C / -5°C

[Daha fazla]
Rüzgar 210º 12kt
Görünürlük >10km
Hava -
Bulutlar Overcast 400ft
Basınç 1005
Değiştir No Significant change. Runway 24: Dry snow, 1-10% contamination with 5mm, friction coefficient 0.45.
Ham UUWW 200200Z 21006MPS 9999 OVC004 M04/M05 Q1005 R24/410545 NOSIG

IFR

-4°C / -6°C

[Daha fazla]
Rüzgar 210º 12kt
Görünürlük >10km
Hava -
Bulutlar Overcast 500ft
Basınç 1005
Değiştir No Significant change. Runway 24: Dry snow, 1-10% contamination with 5mm, friction coefficient 0.45.
Ham UUWW 200130Z 21006MPS 9999 OVC005 M04/M06 Q1005 R24/410545 NOSIG

IFR

-4°C / -6°C

[Daha fazla]
Rüzgar 210º 12kt
Görünürlük >10km
Hava -
Bulutlar Overcast 500ft
Basınç 1006
Değiştir No Significant change. Runway 24: Dry snow, 1-10% contamination with 5mm, friction coefficient 0.45.
Ham UUWW 200100Z 21006MPS 9999 OVC005 M04/M06 Q1006 R24/410545 NOSIG

IFR

-5°C / -6°C

[Daha fazla]
Rüzgar 210º 12kt. Wind Shear present on Runway 24.
Görünürlük >10km
Hava -
Bulutlar Overcast 500ft
Basınç 1006
Değiştir No Significant change. Runway 24: Dry snow, 1-10% contamination with 5mm, friction coefficient 0.45.
Ham UUWW 200030Z 21006MPS 9999 OVC005 M05/M06 Q1006 RMK WS R24 R24/410545 NOSIG

IFR

-5°C / -6°C

[Daha fazla]
Rüzgar 210º 12kt
Görünürlük >10km
Hava -
Bulutlar Overcast 500ft
Basınç 1006
Değiştir No Significant change. Runway 24: Dry snow, 1-10% contamination with 5mm, friction coefficient 0.45.
Ham UUWW 200000Z 21006MPS 9999 OVC005 M05/M06 Q1006 R24/410545 NOSIG

IFR

-5°C / -6°C

[Daha fazla]
Rüzgar 200º 10kt
Görünürlük >10km
Hava -
Bulutlar Overcast 600ft
Basınç 1007
Değiştir No Significant change. Runway 24: Dry snow, 1-10% contamination with 5mm, friction coefficient 0.45.
Ham UUWW 192330Z 20005MPS 9999 OVC006 M05/M06 Q1007 R24/410545 NOSIG

IFR

-5°C / -6°C

[Daha fazla]
Rüzgar 200º 12kt
Görünürlük >10km
Hava -
Bulutlar Overcast 600ft
Basınç 1007
Değiştir No Significant change. Runway 24: Dry snow, 1-10% contamination with 5mm, friction coefficient 0.45.
Ham UUWW 192300Z 20006MPS 9999 OVC006 M05/M06 Q1007 R24/410545 NOSIG

IFR

-5°C / -6°C

[Daha fazla]
Rüzgar 200º 10kt
Görünürlük >10km
Hava -
Bulutlar Overcast 600ft
Basınç 1007
Değiştir No Significant change. Runway 24: Dry snow, 1-10% contamination with 5mm, friction coefficient 0.45.
Ham UUWW 192230Z 20005MPS 9999 OVC006 M05/M06 Q1007 R24/410545 NOSIG

IFR

-5°C / -7°C

[Daha fazla]
Rüzgar 190º 10kt
Görünürlük >10km
Hava -
Bulutlar Overcast 600ft
Basınç 1008
Değiştir No Significant change. Runway 24: Dry snow, 1-10% contamination with 5mm, friction coefficient 0.45.
Ham UUWW 192200Z 19005MPS 9999 OVC006 M05/M07 Q1008 R24/410545 NOSIG

IFR

-5°C / -7°C

[Daha fazla]
Rüzgar 200º 8kt
Görünürlük >10km
Hava -
Bulutlar Overcast 600ft
Basınç 1008
Değiştir No Significant change. Runway 24: Dry snow, 1-10% contamination with 5mm, friction coefficient 0.45.
Ham UUWW 192130Z 20004MPS 9999 OVC006 M05/M07 Q1008 R24/410545 NOSIG

IFR

-6°C / -7°C

[Daha fazla]
Rüzgar 210º 10kt
Görünürlük >10km
Hava -
Bulutlar Overcast 600ft
Basınç 1008
Değiştir No Significant change. Runway 19: Dry snow, 1-10% contamination with 5mm, friction coefficient 0.45.
Ham UUWW 192100Z 21005MPS 9999 OVC006 M06/M07 Q1008 R19/410545 NOSIG

55.6°K 37.27°D (UUWW) için TAF

From till


Maximum Temperature -3ºC on . Minimum Temperature -5ºC on .
From till Wind 180º 10kt. Gust 19kt. Visibility 8000m. Overcast 500ft.
Temporarly from till Wind 180º 19kt. Gust 29kt. Light freezing Drizzle . Overcast 300ft.
Becoming from till Wind 180º 10kt. Gust 19kt. Visibility 2500m. Light Snow . Overcast 500ft.
Temporarly from till Wind 180º 19kt. Gust 29kt. Visibility 692.016m. Heavy Showers Snow blowing Snow . Broken Clouds 300ft. Broken Clouds 1200ft.

Ham: TAF UUWW 200750Z 2009/2109 18005G10MPS 8000 OVC005 TXM03/2012Z TNM05/2103Z TEMPO 2009/2016 18010G15MPS -FZDZ OVC003 BECMG 2016/2017 2500 -SN TEMPO 2017/2106 18010G15MPS 0700 +SHSN BLSN BKN003 BKN012CB

55.6°K 37.27°D için radar ve yağış nowcast

Çise
Hafif
Orta
Ağır
Çok ağır
Selamlamak

Konum işaretleyicisi 55.6°K 37.27°D üzerine yerleştirilir. Bu animasyon son saat içerisindeki yağış radarını ve 1h tahminini gösterir. Hafif yağmur veya kar yağışı radar için görünmez olabilir. Yağış şiddeti açık mavi ile koyu mor arasındaki renklerle kodlanmıştır.

55.6°K 37.27°D için şu anki uydu ve yağmur görüntüleri

Konum işaretleyici 55.6°K 37.27°D üzerine yerleştirilir. [Daha fazla]

Gerçek zamanlı uydu görüntüsü gündüz süresince görülür ışığı gece süresince kızılötesi ışınım ile birleştirir. Gece kızılötesi ışınım sıcaklık farklarını algılayabildiğinden dolayı görüntü karanlık değildir. Ancak düşük bulutları ve sisi yer sıcaklığından ayırmak zordur ve bu nedenle gece boyunca neredeyse görünmez olabilirler. Avrupa için Meteosat uydu görüntüleri gerçek zamanlı olarak her 5 dakikada bir güncellenir. GOES-16/GOES-17 (Kuzey ve Güney Amerika) ve Himawari (Asya) görüntüleri her 10 dakikada bir güncellenir.

Copyright 2022 EUMETSAT / meteoblue. / Copyright 2022 meteoblue